Skip Navigation Links weather.gov 
NOAA logo-Select to go to the NOAA homepage NDBC Title GraphicClick to go to NDBC home page   Select to go to the NWS homepage
Home About Us Contact Us
 
 
    
    Station List

 Data Access
    Mobile Access
    Classic Maps
         Recent
         DART®
    Obs Search
    Ship Obs Report
    BuoyCAMs
    TAO
    DODS
    OceanSITES
    HF Radar
    OSMC
    Dial-A-Buoy
    RSS Feeds Image indicating link to RSS feed access page
    Web Widget
    Email Access
    Web Data Guide
    Maintenance Schedule
    Station Status Report

 Program Info
    TAO
    DART®
    IOOS®

 Publications
    NDBC PEA
    NDBC FONSI
    NDBC DQC Handbook

 FAQ
 Visitor Information
 
USA.gov is the U.S. government's official web portal to all federal, state and local government web resources and services.

Station SKXA2 - Skagway MXAK, AK Image indicating link to RSS feed of recent meteorological observations for station SKXA2

Owned and maintained by Marine Exchange of Alaska
C-MAN Station
59.448 N 135.326 W (59°26'54" N 135°19'35" W)

Site elevation: 4.6 m above mean sea level
Air temp height: 10.1 m above site elevation
Anemometer height: 10.1 m above site elevation
Barometer elevation: 14.6 m above mean sea level

Search And Rescue (SAR) Data

Meteorological Observations from Nearby Stations and Ships Image indicating link to RSS feed of recent meteorological observations near station SKXA2

Large icon indicates selected station.
yellow diamond Stations with recent data
red diamond Stations with no data in last 8 hours
     (24 hours for tsunami stations)


Conditions at SKXA2 as of
(4:23 pm AKST on 12/12/2018)
0123 GMT on 12/13/2018:
     

Click on the graph icon in the table below to see a time series plot of the last five days of that observation.

5-day plot - Wind Direction Wind Direction (WDIR): NE ( 40 deg true )
5-day plot - Wind Speed Wind Speed (WSPD): 4 kts
5-day plot - Wind Gust Wind Gust (GST): 9 kts
5-day plot - Atmospheric Pressure Atmospheric Pressure (PRES): 29.14 in
5-day plot - Air Temperature Air Temperature (ATMP): 34.5 °F
5-day plot - Dew Point Dew Point (DEWP): 23.0 °F
5-day plot - Wind Chill Wind Chill (CHILL): 30.4 °F
5-day plot - Wind Speed at 10 Meters Wind Speed at 10 meters (WSPD10M): 4 kts
5-day plot - Wind Speed at 10 Meters Wind Speed at 20 meters (WSPD20M): 6 kts
5-day plot - Wind Speed, Wind Gust and Atmospheric Pressure Combined plot of Wind Speed, Gust, and Air Pressure
Previous observations
5-day plot - Wind Direction 5-day plot - Wind Speed 5-day plot - Wind Gust 5-day plot - Wave Height 5-day plot - Dominant Wave Period 5-day plot - Average Period 5-day plot - Mean Wave Direction 5-day plot - Atmospheric Pressure 5-day plot - Pressure Tendency 5-day plot - Air Temperature 5-day plot - Water Temperature 5-day plot - Dew Point 5-day plot - Salinity 5-day plot - Visibility 5-day plot - Tide (above MLLW)
MM DD TIME
(AKST)
WDIR WSPD
kts
GST
kts
WVHT
ft
DPD
sec
APD
sec
MWD PRES
in
PTDY
in
ATMP
°F
WTMP
°F
DEWP
°F
SAL
psu
VIS
nmi
TIDE
ft
1212 4:13 pm NW 3 10----29.15- 34.3- 23.5---
1212 4:03 pmNNW 3 8----29.15- 34.0- 23.0---
1212 3:53 pm N 5 7----29.16- 33.6- 23.2---
1212 3:43 pmNNW 6 10----29.16- 33.6- 23.9---
1212 3:33 pmNNE 7 11----29.17- 34.0- 23.7---
1212 3:23 pm N 3 6----29.18- 34.5- 24.6---
1212 3:13 pm NE 3 4----29.18- 34.3- 25.0---
1212 2:55 pm N 5 9----29.18- 33.8- 25.5---
1212 2:47 pmNNE 8 11----29.19- 33.6- 25.7---
1212 2:33 pmNNE 9 13----29.20- 33.4- 25.9---
1212 2:23 pm N 9 15----29.20- 33.8- 26.2---
1212 2:13 pm N 8 13----29.21- 33.8- 26.2---
1212 2:03 pm N 7 10----29.22- 34.2- 26.2---
1212 1:53 pm N 9 11----29.22- 34.2- 26.1---
1212 1:43 pm N 10 15----29.22- 34.7- 26.2---
1212 1:33 pm N 8 12----29.23- 34.7- 26.2---
1212 1:23 pm N 10 12----29.23- 35.1- 26.2---
1212 1:13 pmENE 7 12----29.24- 36.1- 26.4---
1212 1:05 pm SE 7 12----29.25- 36.1- 26.6---
121212:53 pmSSE 11 16----29.25- 36.3- 26.6---
121212:43 pmSSE 12 16----29.26- 36.3- 26.4---
121212:33 pmSSE 14 20----29.26- 36.3- 26.4---
121212:25 pmSSE 15 21----29.26- 36.5- 26.2---
121212:17 pmSSE 12 19----29.26- 36.7- 26.2---
121212:05 pmSSE 14 21----29.27- 36.7- 25.9---
121211:53 amSSE 13 17----29.28- 36.7- 25.9---
121211:43 amSSE 15 21----29.28- 36.7- 25.9---
121211:33 amSSE 16 26----29.28- 36.9- 25.5---
121211:23 am S 19 25----29.28- 36.9- 25.2---
121211:13 am S 21 28----29.29- 36.9- 25.9---
121211:03 amSSE 20 27----29.29- 36.7- 26.1---
121210:53 am S 24 33----29.29- 36.9- 26.1---
121210:43 am S 26 33----29.29- 36.9- 26.2---
121210:33 am S 24 33----29.29- 36.7- 26.6---
121210:23 am S 27 35----29.29- 36.7- 26.2---
121210:13 am S 25 33----29.30- 36.9- 26.4---
121210:03 am S 24 35----29.30- 36.9- 26.4---
1212 9:53 am S 24 33----29.30- 36.7- 25.9---
1212 9:43 am S 28 35----29.30- 36.9- 25.5---
1212 9:33 am S 27 37----29.30- 36.9- 25.5---
1212 9:23 am S 24 34----29.30- 36.9- 25.9---
1212 9:13 am S 25 35----29.30- 36.9- 25.9---
1212 9:03 am S 31 39----29.29- 36.7- 25.5---
1212 8:53 am S 26 39----29.30- 36.7- 25.9---
1212 8:43 amSSE 21 32----29.30- 36.7- 25.7---
1212 8:33 amSSE 21 32----29.30- 36.7- 25.0---
1212 8:23 amSSE 18 30----29.29- 36.3- 25.5---
1212 8:13 amSSE 21 28----29.29- 36.1- 25.7---
1212 8:03 am S 25 34----29.28- 36.0- 27.3---
1212 7:53 amSSE 25 37----29.28- 35.6- 27.3---
1212 7:43 amSSE 26 34----29.28- 36.0- 27.1---
1212 7:33 am S 21 33----29.28- 36.9- 26.2---
1212 7:23 amSSE 17 29----29.28- 37.0- 26.1---
1212 7:13 amSSE 16 27----29.28- 37.0- 26.2---
1212 7:03 amSSE 17 26----29.28- 36.9- 26.1---
1212 6:53 amSSE 16 27----29.27- 36.9- 26.2---
1212 6:43 am SE 16 24----29.27- 36.7- 25.9---
1212 6:33 am SE 19 29----29.27- 36.5- 26.1---
1212 6:23 am SE 19 29----29.27- 36.5- 26.2---
1212 6:13 am SE 18 26----29.27- 36.9- 26.2---
1212 6:03 amSSE 19 29----29.26- 37.0- 26.6---
1212 5:54 amSSE 18 34----29.26- 37.2- 26.6---
1212 5:43 amSSE 17 28----29.25- 37.2- 27.0---
1212 5:33 amSSE 22 33----29.25- 37.0- 27.1---
1212 5:23 amSSE 18 26----29.25- 37.0- 27.1---
1212 5:13 amSSE 19 31----29.24- 37.0- 27.1---
1212 5:03 amSSE 18 28----29.24- 37.4- 26.6---
1212 4:53 amSSE 19 30----29.23- 37.6- 26.4---
1212 4:43 amSSE 21 33----29.22- 37.4- 26.8---
1212 4:33 amSSE 17 28----29.23- 37.6- 27.1---
1212 4:23 amSSE 21 33----29.22- 37.8- 27.0---
1212 4:13 amSSE 21 33----29.22- 37.8- 27.0---
1212 4:03 amSSE 18 29----29.21- 37.6- 27.5---
1212 3:53 amSSE 18 32----29.21- 37.2- 27.5---
1212 3:43 amSSE 21 33----29.21- 37.0- 27.9---
1212 3:33 amSSE 18 29----29.21- 37.0- 27.5---
1212 3:23 amSSE 18 27----29.21- 37.2- 27.7---
1212 3:13 amSSE 20 31----29.20- 37.2- 28.0---
1212 3:03 amSSE 20 32----29.20- 37.4- 27.9---
1212 2:53 amSSE 19 28----29.19- 37.4- 27.7---
1212 2:43 amSSE 25 42----29.18- 37.6- 27.9---
1212 2:33 amSSE 18 29----29.19- 38.1- 27.3---
1212 2:23 amSSE 20 33----29.18- 38.5- 27.0---
1212 2:13 amSSE 17 29----29.18- 38.5- 26.6---
1212 2:03 amSSE 17 26----29.18- 38.3- 26.1---
1212 1:53 amSSE 19 28----29.17- 38.5- 26.1---
1212 1:43 amSSE 16 24----29.16- 38.7- 26.1---
1212 1:33 am S 14 21----29.16- 39.0- 25.7---
1212 1:23 amSSE 18 27----29.15- 38.8- 26.1---
1212 1:13 amSSE 16 24----29.15- 38.8- 26.2---
1212 1:03 amSSE 19 28----29.15- 39.4- 25.7---
121212:53 am S 15 28----29.15- 40.1- 24.6---
121212:43 am S 14 23----29.14- 40.3- 24.1---
121212:33 am S 15 25----29.14- 40.3- 23.7---
121212:23 amSSE 15 25----29.13- 40.1- 24.1---
121212:13 am S 13 26----29.12- 39.9- 25.5---
121212:03 amSSE 16 27----29.11- 39.6- 26.6---
121111:53 pmSSE 19 31----29.10- 39.2- 27.1---
121111:43 pmSSE 18 29----29.10- 39.2- 27.5---
121111:33 pmSSE 17 25----29.09- 39.4- 27.1---
121111:23 pm SE 18 31----29.09- 39.0- 27.7---
121111:13 pm SE 19 27----29.08- 39.0- 28.4---
121111:03 pmSSE 19 33----29.07- 39.2- 28.8---
121110:53 pmSSE 18 29----29.06- 39.0- 29.3---
121110:43 pmSSE 17 25----29.06- 39.0- 29.8---
121110:33 pmSSE 20 30----29.05- 38.8- 29.8---
121110:23 pmSSE 21 31----29.04- 38.5- 30.2---
121110:13 pm SE 19 33----29.05- 37.8- 30.9---
121110:03 pmSSE 20 28----29.04- 37.2- 31.1---
1211 9:53 pmSSE 19 27----29.04- 36.9- 30.9---
1211 9:43 pmSSE 22 34----29.03- 36.7- 30.7---
1211 9:33 pmSSE 21 31----29.03- 36.7- 30.9---
1211 9:23 pmSSE 24 34----29.03- 36.9- 30.9---
1211 9:13 pmSSE 24 32----29.02- 37.4- 31.1---
1211 9:03 pmSSE 23 35----29.02- 37.9- 31.5---
1211 8:53 pmSSE 20 32----29.02- 38.1- 31.5---
1211 8:43 pmSSE 23 32----29.01- 38.1- 31.3---
1211 8:33 pmSSE 25 34----29.01- 38.1- 31.3---
1211 8:23 pmSSE 20 27----29.01- 38.1- 31.1---
1211 8:13 pmSSE 21 31----29.01- 38.3- 30.9---
1211 8:03 pmSSE 21 30----29.00- 38.3- 30.7---
1211 7:53 pmSSE 20 32----29.00- 38.3- 30.9---
1211 7:43 pmSSE 20 30----29.00- 38.5- 30.9---
1211 7:33 pmSSE 22 32----28.99- 38.5- 30.9---
1211 7:23 pmSSE 21 30----28.99- 38.5- 31.1---
1211 7:13 pmSSE 21 33----28.99- 38.1- 31.1---
1211 7:03 pmSSE 21 30----28.98- 38.1- 31.1---
1211 6:53 pmSSE 21 28----28.98- 38.1- 31.1---
1211 6:43 pmSSE 22 29----28.98- 37.9- 31.3---
1211 6:33 pmSSE 21 30----28.98- 37.9- 31.3---
1211 6:23 pmSSE 23 33----28.97- 37.8- 31.3---
1211 6:13 pmSSE 23 32----28.97- 37.8- 31.5---
1211 6:03 pmSSE 22 31----28.97- 37.8- 31.8---
1211 5:53 pmSSE 24 33----28.96- 37.6- 31.6---
1211 5:43 pmSSE 23 32----28.96- 37.4- 31.6---
1211 5:33 pmSSE 25 34----28.95- 37.2- 31.6---
1211 5:23 pmSSE 25 34----28.95- 37.0- 31.5---
1211 5:13 pmSSE 21 31----28.95- 36.9- 31.5---
1211 5:03 pmSSE 23 32----28.95- 36.7- 31.5---
1211 4:53 pmSSE 23 31----28.95- 36.5- 31.3---
1211 4:43 pmSSE 23 33----28.95- 36.3- 31.1---
1211 4:33 pmSSE 21 32----28.95- 36.3- 31.3---
1211 4:23 pmSSE 20 29----28.95- 36.1- 31.3---
1211 4:13 pmSSE 19 28----28.94- 36.0- 31.1---
1211 4:03 pmSSE 21 31----28.96- 36.0- 31.1---
1211 3:53 pmSSE 18 26----28.95- 35.6- 30.9---

Description of Measurements

Links which are specific to this station are listed below:

Real Time Data in tabular form for the last forty-five days.

Historical Data & Climatic Summaries for quality controlled data for the current month, previous months, and previous years.